Regional Weather Roundup
Issued by NWS

Home | Current Version | Previous Version | Graphics & Text | Print | Product List | Glossary On
Versions: 1 2 3 4 5 6 7 8 9 10 11 12 13 14 15 16 17 18 19 20 21 22 23 24 25 26 27 28 29 30 31 32 33 34 35 36 37 38 39 40 41 42 43 44 45 46 47 48 49 50
000
ASUS43 KDMX 290703
RWRIA

WEATHER ROUNDUP FOR IOWA
NATIONAL WEATHER SERVICE DES MOINES IA
200 AM CDT FRI JUL 29 2016

NOTE: "FAIR" INDICATES FEW OR NO CLOUDS BELOW 12,000 FEET WITH NO
SIGNIFICANT WEATHER AND/OR OBSTRUCTIONS TO VISIBILITY.

* - THESE STATIONS ARE NOT NWS STATIONS...THUS NOT UNDER NWS
QUALITY CONTROL.  THEY ALSO DO NOT REPORT WEATHER SUCH
AS PRECIPITATION OR FOG.

IAZ001>003-012>014-020>022-031>034-043>046-290800-
   NORTHWEST IOWA

CITY           SKY/WX    TMP DP  RH WIND       PRES   REMARKS
CARROLL *      CLOUDY    63  63 100 N5        30.03S
CHEROKEE *     CLEAR     62  62 100 CALM      30.06S
DENISON *      CLOUDY    63  63 100 NE6       30.03R
LE MARS *      PTCLDY    63  61  94 N3        30.07S
SHELDON *      CLEAR     59  59 100 N5        30.06S
SIOUX CITY     CLOUDY    69  62  78 N6        30.05S
SPENCER        CLEAR     60  58  92 NW6       30.06F
STORM LAKE *   CLEAR     64  63  94 NE7       30.06S
$$

IAZ055>058-069>071-079>083-090>094-290800-
   SOUTHWEST IOWA

CITY           SKY/WX    TMP DP  RH WIND       PRES   REMARKS
ATLANTIC *     CLOUDY    66  64  94 N7        30.02S
CLARINDA *       N/A     70  68  94 MISG      30.03S
COUNCIL BLFS *   N/A     68  64  88 N5        30.02F
CRESTON *      CLOUDY    68  63  83 N7        30.02F
HARLAN  *      CLOUDY    66  64  94 CALM      30.06S
LAMONI         CLOUDY    66  63  90 N6        29.99F
RED OAK *      CLOUDY    68  64  88 N5        30.02R
SHENANDOAH *   CLOUDY    70  68  94 CALM      30.02S
$$

IAZ047>049-059>061-072>074-084-290800-
   CENTRAL IOWA

CITY           SKY/WX    TMP DP  RH WIND       PRES   REMARKS
AMES           MOCLDY    65  64  97 N6        30.00S
ANKENY *         N/A    N/A N/A N/A MISG        N/A
BOONE *        PTCLDY    64  63  94 N7        30.00S
CHARITON *       N/A    N/A N/A N/A MISG        N/A
DES MOINES     CLOUDY    69  63  81 N7        29.99S
GRINNELL*      CLOUDY    64  62  94 CALM      30.00R
KNOXVILLE *    MOCLDY    66  63  88 N6        29.98S
MARSHALLTOWN   CLOUDY    65  64  97 NW6       29.99S
NEWTON *       PTCLDY    64  64 100 N8        29.99R
PELLA *        PTCLDY    64  63  94 CALM      30.00S
PERRY *          N/A     64  63  97 NW3       30.01S
$$

IAZ004>006-015-016-023>025-035-036-290800-
   NORTH CENTRAL IOWA

CITY           SKY/WX    TMP DP  RH WIND       PRES   REMARKS
ALGONA *       CLOUDY    63  61  94 W6        30.05R
ESTHERVILLE    MOCLDY    62  62 100 W5        30.06R
FORT DODGE *   CLOUDY    63  61  94 NW5       30.04S
MASON CITY     CLOUDY    64  62  93 N6        30.03S
FOREST CITY *  CLOUDY    63  61  94 N6        30.02F
IOWA FALLS *   CLOUDY    65  63  93 NW7       30.01F
$$

IAZ007>011-017>019-026>030-037>042-050>054-066-290800-
   NORTHEAST IOWA

CITY           SKY/WX    TMP DP  RH WIND       PRES   REMARKS
CEDAR RAPIDS   CLOUDY    67  67 100 NW7       29.95F
CHARLES CITY * DRIZZLE   64  64 100 N6        30.00F
CLINTON *      CLOUDY    71  69  93 E5        29.93S
DECORAH *      CLOUDY    64  64 100 N6        29.98F FOG
DUBUQUE        CLOUDY    69  66  90 E7        29.96S
MONTICELLO *   CLOUDY    68  66  94 N5        29.94S
OELWEIN *      CLOUDY    66  64  94 N7        29.98S
WATERLOO       CLOUDY    65  63  93 N7        29.97S
$$

IAZ064-065-067-068-078-290800-
   EAST CENTRAL IOWA

CITY           SKY/WX    TMP DP  RH WIND       PRES   REMARKS
DAVENPORT      PTCLDY    67  65  93 NW3       29.93S
IOWA CITY      CLOUDY    69  65  86 NW6       29.95F
MT. PLEASANT * CLEAR     69  69 100 NW6       29.95S
MUSCATINE *    CLEAR     68  64  88 NW7       29.93F
QUAD CITIES    CLEAR     71  66  84 NW6       29.91S
$$

IAZ062-063-075>077-085>089-095>099-290800-
   SOUTHEAST IOWA

CITY           SKY/WX    TMP DP  RH WIND       PRES   REMARKS
BURLINGTON     PTCLDY    67  66  97 NW5       29.94S
FAIRFIELD *    PTCLDY    66  64  94 NW6       29.96S
KEOKUK *       PTCLDY    68  66  94 NW5       29.94S
CENTERVILLE *    N/A     63  63 100 CALM      29.99F
OTTUMWA        PTCLDY    64  62  93 NW7       29.97S
WASHINGTON *   CLEAR     66  64  94 NW5       29.96S
$$

ABBREVIATIONS USED IN REMARKS
   TC - TEMPERATURES IN CELSIUS
  WCI - WIND CHILL INDEX
   HX - HEAT INDEX
  VSB - VISIBILITY
$$





USA.gov is the U.S. government's official web portal to all federal, state and local government web resources and services.